TimeCDT,TemperatureF,Dew PointF,Humidity,Sea Level PressureIn,VisibilityMPH,Wind Direction,Wind SpeedMPH,Gust SpeedMPH,PrecipitationIn,Events,Conditions,WindDirDegrees,DateUTC
12:53 AM,54.0,33.1,45,30.04,10.0,SSE,4.6,-,N/A,,Clear,150,2013-03-10 06:53:00
1:53 AM,52.0,33.1,49,30.01,10.0,SE,5.8,-,N/A,,Clear,130,2013-03-10 07:53:00
3:53 AM,57.0,30.9,37,30.00,10.0,South,10.4,-,N/A,,Clear,180,2013-03-10 08:53:00
4:53 AM,55.9,32.0,40,30.01,10.0,SSW,8.1,-,N/A,,Clear,200,2013-03-10 09:53:00
5:53 AM,57.0,32.0,39,30.02,10.0,South,12.7,-,N/A,,Mostly Cloudy,180,2013-03-10 10:53:00
7:53 AM,57.0,33.1,40,30.02,10.0,South,11.5,-,N/A,,Clear,170,2013-03-10 12:53:00
8:53 AM,59.0,33.1,38,30.01,10.0,SSE,12.7,-,N/A,,Clear,160,2013-03-10 13:53:00
9:53 AM,62.1,33.1,34,30.01,10.0,South,17.3,-,N/A,,Clear,190,2013-03-10 14:53:00
10:53 AM,64.0,35.1,34,29.99,10.0,South,12.7,20.7,N/A,,Clear,180,2013-03-10 15:53:00
11:53 AM,66.9,35.1,31,29.99,10.0,SSW,19.6,29.9,N/A,,Clear,200,2013-03-10 16:53:00
12:53 PM,70.0,34.0,27,29.96,10.0,South,21.9,29.9,N/A,,Clear,180,2013-03-10 17:53:00
1:53 PM,71.1,36.0,28,29.94,10.0,South,21.9,31.1,N/A,,Clear,180,2013-03-10 18:53:00
2:53 PM,71.1,36.0,28,29.91,10.0,South,23.0,31.1,N/A,,Clear,180,2013-03-10 19:53:00
3:53 PM,70.0,36.0,29,29.88,10.0,South,18.4,25.3,N/A,,Clear,180,2013-03-10 20:53:00
4:53 PM,69.1,34.0,27,29.85,10.0,South,16.1,26.5,N/A,,Clear,180,2013-03-10 21:53:00
5:53 PM,68.0,34.0,28,29.84,10.0,South,13.8,23.0,N/A,,Partly Cloudy,170,2013-03-10 22:53:00
6:53 PM,68.0,34.0,28,29.81,10.0,SSE,15.0,25.3,N/A,,Partly Cloudy,160,2013-03-10 23:53:00
7:53 PM,64.0,41.0,43,29.83,10.0,South,11.5,-,0.00,Rain,Light Rain,170,2013-03-11 00:53:00
8:53 PM,60.1,45.0,57,29.83,10.0,South,4.6,-,0.05,Rain,Light Rain,170,2013-03-11 01:53:00
9:53 PM,55.0,50.0,83,29.84,9.0,Calm,Calm,-,0.03,Rain,Light Rain,0,2013-03-11 02:53:00
10:53 PM,54.0,52.0,93,29.82,10.0,Calm,Calm,-,0.01,,Overcast,0,2013-03-11 03:53:00
11:53 PM,54.0,51.1,90,29.80,8.0,Calm,Calm,-,0.00,,Overcast,0,2013-03-11 04:53:00
12:53 AM,55.0,51.1,86,29.81,7.0,Calm,Calm,-,0.01,Rain,Light Rain,0,2013-03-11 05:53:00